Location: Piedmont
(45.8748°N, 74.1254°W)
Time: 23:04:38
(UTC+00:00)

X-37B - Pass Details

Date: 10 December 2021
Orbit: 334 x 337 km, 45.0° (Epoch: 11 January)

Event Time Altitude Azimuth Distance (km) Brightness Sun altitude
Rises 00:00:07 0° 264° (W) 2,103 5.6 -28.3°
Reaches altitude 10° 00:02:07 10° 263° (W) 1,266 4.1 -28.7°
Enters shadow 00:02:07 10° 263° (W) 1,266 4.1 -28.7°
